Home > Weather > Koror > Past weeks

Flag for Palau Weather for the Past 2 Weeks in Koror, Palau

Now
86 °F

More clouds than sun.


Feels Like: 95 °F
Forecast: 78 / 87 °F
Wind: 16 mph from East

Location: Koror / Palau Island

Current Time: Feb 14, 2016 at 11:38:18 AM

Latest Report: Feb 14, 2016 at 9:50 AM


Visibility: 14 mi

Pressure: 29.90 "Hg

Humidity: 70%

Dew point: 75 °F

Location of KororLocation

Historic Weather in Koror — Graph

°F

Koror Temperature Yesterday

Maximum temperature yesterday: 86 °F (at 11:52 AM)
Minimum temperature yesterday: 75 °F (at 4:50 AM)
Average temperature yesterday: 81 °F

High & Low Weather Summary for the Past Weeks

 TemperatureHumidityPressure
High86 °F (Jan 30, 11:50 AM)100% (Feb 13, 4:50 AM)29.92 "Hg (Feb 13, 4:50 AM)
Low73 °F (Feb 7, 12:50 AM)66% (Feb 5, 12:50 PM)29.75 "Hg (Jan 31, 4:54 PM)
Average81 °F83%29.83 "Hg
* Reported Jan 30 9:51 AM — Feb 14 9:50 AM, Koror, Weather by CustomWeather, © 2016

Note: Actual official high and low records may vary slightly from our data, if they occured in-between our weather recording intervals... More about our weather records

Advertising

Koror Weather History for the Previous 24 Hours

 ConditionsComfort  
Time TempWeatherWind HumidityBarometerVisibility
9:50 AM
Sun, Feb 14
86 °FMore clouds than sun.16 mph70%29.90 "Hg14 mi
8:50 AM84 °FCloudy.14 mph74%29.91 "Hg14 mi
7:50 AM81 °FBroken clouds.14 mph84%29.90 "Hg14 mi
6:53 AM79 °FBroken clouds.10 mph84%29.88 "Hg14 mi
5:54 AM79 °FPartly cloudy.9 mph89%29.87 "Hg14 mi
3:52 AM79 °FPartly cloudy.9 mph89%29.84 "Hg14 mi
2:50 AM79 °FPartly cloudy.9 mph89%29.86 "Hg14 mi
1:51 AM79 °FPartly cloudy.12 mph89%29.87 "Hg14 mi
12:55 AM79 °FPartly cloudy.8 mph89%29.89 "Hg14 mi
11:50 PM
Sat, Feb 13
79 °FMostly cloudy.7 mph94%29.88 "Hg14 mi
10:50 PM79 °FSprinkles. Mostly cloudy.10 mph94%29.89 "Hg12 mi
9:50 PM79 °FMostly cloudy.10 mph89%29.90 "Hg14 mi
8:54 PM79 °FMostly cloudy.8 mph94%29.87 "Hg14 mi
7:53 PM81 °FMostly cloudy.13 mph89%29.86 "Hg14 mi
6:50 PM81 °FMostly cloudy.8 mph84%29.84 "Hg14 mi
5:50 PM81 °FMore clouds than sun.10 mph84%29.83 "Hg14 mi
4:50 PM82 °FMore clouds than sun.14 mph79%29.81 "Hg14 mi
3:50 PM84 °FCloudy.16 mph74%29.80 "Hg14 mi
2:55 PM84 °FCloudy.15 mph74%29.81 "Hg14 mi
1:51 PM86 °FCloudy.17 mph70%29.82 "Hg14 mi
12:51 PM86 °FCloudy.14 mph70%29.84 "Hg14 mi
11:52 AM86 °FCloudy.12 mph70%29.87 "Hg14 mi
Weather by CustomWeather, © 2016

See weather overviewHow to use our weather pages